EW3317 Weather Reports


Display with metric or nautical units.
time (UTC)temp
F
wind
direction
speed
MPH
gust
MPH
rain 1hr
in
rain 24hr
in
rain mn
in
humidity
%
barometer
mb
20260504081518 50 359 8.0 12.0 0.00 0.00 0.00 43 1007.2
20260504044553 49 4 0.0 5.0 0.00 0.00 0.00 48 1008.4
20260504043110 49 354 4.0 8.0 0.00 0.00 0.00 49 1008.4
20260504041550 49 341 0.0 0.0 0.00 0.00 0.00 50 1008.5
20260504040050 49 341 0.0 0.0 0.00 0.00 0.00 49 1008.5
20260504034553 50 341 0.0 0.0 0.00 0.00 0.00 48 1008.5
20260504033052 51 341 0.0 4.0 0.00 0.00 0.00 49 1008.4
20260504031553 51 314 0.0 4.0 0.00 0.00 0.00 48 1008.3
20260504024548 54 256 0.0 0.0 0.00 0.00 0.00 46 1008.2
20260504023047 55 253 3.0 5.0 0.00 0.00 0.00 43 1008.1
20260504021549 56 109 0.0 0.0 0.00 0.00 0.00 42 1008.1
20260504020052 57 109 0.0 0.0 0.00 0.00 0.00 42 1008.0
20260504014545 59 109 0.0 0.0 0.00 0.00 0.00 40 1008.1
20260504013051 60 109 0.0 0.0 0.00 0.00 0.00 37 1008.2
20260504011544 61 85 0.0 1.0 0.00 0.00 0.00 35 1008.2
20260504010053 62 81 0.0 9.0 0.00 0.00 0.00 36 1008.3
20260504004546 62 118 5.0 9.0 0.00 0.00 0.00 34 1008.3
20260504003043 63 102 2.0 7.0 0.00 0.00 0.00 34 1008.4
20260504001541 63 110 1.0 8.0 0.00 0.00 0.00 34 1008.4
20260504000038 63 130 0.0 7.0 0.00 0.00 0.00 33 1008.6
20260503234541 64 134 3.0 8.0 0.00 0.00 0.00 33 1008.7
20260503233037 63 131 2.0 11.0 0.00 0.00 0.00 34 1008.8
20260503231536 63 108 0.0 7.0 0.00 0.00 0.00 34 1008.9
20260503230050 63 134 8.0 12.0 0.00 0.00 0.00 35 1009.0
20260503224535 63 140 5.0 9.0 0.00 0.00 0.00 36 1008.9
20260503223034 63 35 0.0 8.0 0.00 0.00 0.00 36 1009.3
20260503221535 63 102 3.0 9.0 0.00 0.00 0.00 37 1009.4
20260503220036 63 101 1.0 11.0 0.00 0.00 0.00 35 1009.4
20260503214545 62 114 2.0 10.0 0.00 0.00 0.00 37 1009.7
20260503213033 62 87 3.0 10.0 0.00 0.00 0.00 39 1009.9
20260503211528 62 116 1.0 12.0 0.00 0.00 0.00 38 1010.1
20260503210027 61 109 5.0 11.0 0.00 0.00 0.00 41 1010.1
20260503204530 61 101 5.0 16.0 0.00 0.00 0.00 42 1010.4
20260503203026 62 70 5.0 15.0 0.00 0.00 0.00 43 1010.4
20260503201526 61 104 3.0 12.0 0.00 0.00 0.00 44 1010.3
20260503200024 61 67 6.0 10.0 0.00 0.00 0.00 42 1010.6
20260503194523 61 102 8.0 12.0 0.00 0.00 0.00 41 1010.7
20260503193022 65 41 7.0 12.0 0.00 0.00 0.00 34 1011.0
20260503191521 65 335 6.0 16.0 0.00 0.00 0.00 33 1010.9
20260503190026 66 32 6.0 19.0 0.00 0.00 0.00 29 1010.8
20260503184518 63 51 2.0 12.0 0.00 0.00 0.00 31 1011.0
20260503183014 63 89 4.0 13.0 0.00 0.00 0.00 39 1011.2
20260503181531 63 48 7.0 14.0 0.00 0.00 0.00 38 1011.4
20260503180024 64 339 6.0 21.0 0.00 0.00 0.00 29 1011.2
20260503174508 64 4 2.0 8.0 0.00 0.00 0.00 32 1011.5
20260503173005 62 141 4.0 13.0 0.00 0.00 0.00 39 1011.9
20260503171502 61 89 0.0 4.0 0.00 0.00 0.00 41 1012.0
20260503170113 60 118 2.0 7.0 0.00 0.00 0.00 41 1012.2
20260503120110 41 4 0.0 3.0 0.00 0.00 0.00 69 1014.0